Meacham, OR

3:30 AM PST on February 20, 2017 (GMT -0800)
Meacham

Weather History for KMEH - May, 2013

Change the Weather History Date:

Wednesday, May 29, 2013

  Actual Average Record
Temperature  
Mean Temperature 45 °F -  
Max Temperature 54 °F 60 °F 81 °F (2015)
Min Temperature 37 °F 34 °F 28 °F (2001)
Degree Days  
Heating Degree Days 20    
Moisture  
Dew Point 43 °F    
Average Humidity 89    
Maximum Humidity 96    
Minimum Humidity 66    
Precipitation  
Precipitation 0.70 in - - ()
Sea Level Pressure  
Sea Level Pressure 29.82 in    
Wind  
Wind Speed 2 mph (West)    
Max Wind Speed 8 mph    
Max Gust Speed 17 mph    
Visibility 7 miles    
Events Rain    
Averages and records for this station are not official NWS values.
T = Trace of Precipitation, MM = Missing Value Source: NWS Daily Summary

Daily Weather History Graph

Daily Weather History Graph

Search for Another Location

Airport or City:

Trip Planner

Search our weather history database for the weather conditions in past years. The results will help you decide how hot, cold, wet, or windy it might be!

Date:

Astronomy

May. 29, 2013 Rise Set
Actual Time 5:09 AM PDT 8:32 PM PDT
Civil Twilight 4:33 AM PDT 9:09 PM PDT
Nautical Twilight 3:45 AM PDT 9:57 PM PDT
Astronomical Twilight 2:44 AM PDT 10:58 PM PDT
Moon No Moon Rise 10:23 AM PDT (5/29)
Length of Visible Light 16h 36m
Length of Day
15h 22m
Waning Gibbous, 72% of the Moon is Illuminated
May 29
Waning Gibbous
May 31
Last Quarter
Jun 8
New
Jun 16
First Quarter
Jun 23
Full

Hourly Weather History & Observations

Time (PDT) Temp. Windchill Dew Point Humidity Pressure Visibility Wind Dir Wind Speed Gust Speed Precip Events Conditions
12:23 AM 37.4 °F - 35.6 °F 93% 29.79 in 10.0 mi Calm Calm - N/A   Scattered Clouds
12:56 AM 37.0 °F - 35.1 °F 93% 29.79 in 10.0 mi Calm Calm - N/A   Partly Cloudy
1:56 AM 37.0 °F - 35.1 °F 93% 29.75 in 10.0 mi Calm Calm - N/A   Clear
2:56 AM 39.0 °F - 37.9 °F 96% 29.73 in 10.0 mi Calm Calm - N/A   Partly Cloudy
3:56 AM 44.1 °F - 42.1 °F 93% 29.69 in 10.0 mi Calm Calm - N/A   Overcast
4:56 AM 44.1 °F - 41.0 °F 89% 29.68 in 10.0 mi Calm Calm - N/A   Overcast
5:56 AM 44.1 °F - 42.1 °F 93% 29.70 in 6.0 mi Calm Calm - 0.02 in Rain Light Rain
6:25 AM 44.6 °F - 42.8 °F 93% 29.71 in 1.8 mi Calm Calm - 0.05 in Rain Rain
6:38 AM 44.6 °F - 42.8 °F 93% 29.71 in 1.8 mi Calm Calm - 0.07 in Rain Light Rain
7:01 AM 44.6 °F - 42.8 °F 93% 29.71 in 3.0 mi Calm Calm - 0.00 in Rain Light Rain
8:56 AM 50.0 °F - 46.0 °F 86% 29.71 in 10.0 mi Calm Calm - 0.00 in Rain Light Rain
9:07 AM 48.2 °F - 44.6 °F 87% 29.74 in 1.8 mi West 8.1 mph - 0.01 in Rain Rain
9:18 AM 44.6 °F 42.2 °F 42.8 °F 93% 29.74 in 2.5 mi Variable 4.6 mph - 0.06 in Rain Rain
9:25 AM 46.4 °F 42.9 °F 42.8 °F 87% 29.75 in 5.0 mi Variable 6.9 mph - 0.07 in Rain Light Rain
9:56 AM 46.9 °F - 44.1 °F 90% 29.75 in 10.0 mi Calm Calm - 0.07 in Rain Light Rain
10:56 AM 51.1 °F - 43.0 °F 74% 29.76 in 10.0 mi Variable 4.6 mph - 0.00 in   Mostly Cloudy
11:56 AM 53.1 °F - 42.1 °F 66% 29.77 in 10.0 mi Variable 4.6 mph - N/A   Scattered Clouds
12:36 PM 44.6 °F 42.2 °F 41.0 °F 87% 29.81 in 0.8 mi Variable 4.6 mph 17.3 mph 0.06 in Rain Heavy Rain
12:47 PM 42.8 °F 39.3 °F 41.0 °F 93% 29.81 in 3.0 mi Variable 5.8 mph - 0.10 in Rain Light Rain
12:56 PM 44.1 °F 42.5 °F 41.0 °F 89% 29.84 in 10.0 mi Variable 3.5 mph - 0.10 in Rain Light Rain
1:05 PM 46.4 °F 45.2 °F 42.8 °F 87% 29.81 in 8.0 mi Variable 3.5 mph - 0.00 in Rain Light Rain
1:11 PM 46.4 °F - 42.8 °F 87% 29.80 in 6.0 mi Calm Calm - 0.01 in Rain Light Rain
1:15 PM 46.4 °F - 44.6 °F 93% 29.80 in 8.0 mi Calm Calm - 0.01 in Rain Light Rain
1:34 PM 46.4 °F 42.9 °F 44.6 °F 93% 29.81 in 2.0 mi Variable 6.9 mph - 0.02 in Rain Rain
1:45 PM 46.4 °F 43.5 °F 42.8 °F 87% 29.82 in 2.5 mi Variable 5.8 mph - 0.05 in Rain Light Rain
1:56 PM 46.9 °F - 44.1 °F 90% 29.84 in 7.0 mi Variable 5.8 mph - 0.05 in Rain Light Rain
2:08 PM 46.4 °F 43.5 °F 44.6 °F 93% 29.82 in 4.0 mi Variable 5.8 mph - 0.02 in Rain Light Rain
2:27 PM 48.2 °F - 44.6 °F 87% 29.82 in 10.0 mi Variable 3.5 mph - 0.02 in   Overcast
2:36 PM 48.2 °F - 44.6 °F 87% 29.83 in 1.8 mi Variable 3.5 mph - 0.04 in Rain Rain
2:50 PM 46.4 °F 45.2 °F 44.6 °F 93% 29.83 in 2.0 mi Variable 3.5 mph - 0.11 in Rain Light Rain
2:56 PM 48.0 °F - 45.0 °F 89% 29.85 in 8.0 mi Variable 6.9 mph - 0.11 in Rain Light Rain
3:09 PM 44.6 °F 42.2 °F 42.8 °F 93% 29.85 in 1.8 mi Variable 4.6 mph - 0.03 in Rain Rain
3:20 PM 44.6 °F - 42.8 °F 93% 29.85 in 2.0 mi Calm Calm - 0.07 in Rain Rain
3:26 PM 44.6 °F - 42.8 °F 93% 29.85 in 4.0 mi Calm Calm - 0.09 in Rain Light Rain
3:37 PM 46.4 °F 45.2 °F 42.8 °F 87% 29.84 in 10.0 mi Variable 3.5 mph - 0.09 in Rain Light Rain
3:48 PM 46.4 °F - 42.8 °F 87% 29.85 in 10.0 mi Calm Calm - 0.09 in   Overcast
3:56 PM 46.9 °F - 43.0 °F 86% 29.86 in 4.0 mi Calm Calm - 0.09 in Rain Light Rain
4:28 PM 48.2 °F - 44.6 °F 87% 29.85 in 10.0 mi Calm Calm - 0.02 in   Overcast
4:47 PM 46.4 °F - 44.6 °F 93% 29.85 in 9.0 mi Calm Calm - 0.02 in Rain Light Rain
4:56 PM 46.0 °F 42.5 °F 44.1 °F 93% 29.88 in 1.8 mi Variable 6.9 mph - 0.05 in Rain Heavy Rain
5:41 PM 46.4 °F - 44.6 °F 93% 29.87 in 10.0 mi Calm Calm - 0.05 in   Overcast
5:56 PM 46.0 °F 43.9 °F 43.0 °F 89% 29.88 in 1.0 mi Variable 4.6 mph - 0.12 in Rain Heavy Rain
6:03 PM 46.4 °F - 42.8 °F 87% 29.87 in 3.0 mi Calm Calm - 0.02 in Rain Light Rain
6:21 PM 46.4 °F - 44.6 °F 93% 29.87 in 10.0 mi Calm Calm - 0.02 in Rain Light Rain
6:28 PM 46.4 °F - 44.6 °F 93% 29.87 in 10.0 mi Calm Calm - 0.02 in   Overcast
6:43 PM 48.2 °F - 44.6 °F 87% 29.87 in 10.0 mi Calm Calm - 0.02 in   Overcast
6:56 PM 48.0 °F - 44.1 °F 86% 29.89 in 10.0 mi Calm Calm - 0.02 in   Mostly Cloudy
7:03 PM 48.2 °F - 44.6 °F 87% 29.88 in 10.0 mi Variable 3.5 mph - N/A   Overcast
7:35 PM 46.4 °F 45.2 °F 42.8 °F 87% 29.90 in 10.0 mi Variable 3.5 mph - N/A   Mostly Cloudy
7:56 PM 46.0 °F - 42.1 °F 86% 29.91 in 10.0 mi Calm Calm - N/A   Partly Cloudy
8:44 PM 44.6 °F - 41.0 °F 87% 29.92 in 10.0 mi Calm Calm - N/A   Mostly Cloudy
8:56 PM 45.0 °F - 41.0 °F 86% 29.92 in 10.0 mi Calm Calm - N/A   Mostly Cloudy
9:28 PM 42.8 °F - 41.0 °F 93% 29.94 in 10.0 mi Calm Calm - N/A   Mostly Cloudy
9:56 PM 44.1 °F - 41.0 °F 89% 29.96 in 10.0 mi Calm Calm - N/A   Overcast
10:56 PM 43.0 °F - 41.0 °F 93% 29.97 in 8.0 mi Calm Calm - 0.03 in Rain Light Rain
11:56 PM 42.1 °F - 39.9 °F 92% 29.97 in 10.0 mi Calm Calm - 0.04 in Rain Light Rain